Showing default

FLOCK 4BE 10, 60503

Orbit data source: Space-Track

FLOCK 4BE 10, 60503 is a payload satellite owned by Planet (US) in SSO that was launched on Fri, 16 Aug 2024 UTC via an FALCON 9 launch vehicle from the Air Force Western Test Range (AFWTR). Payloads include a variety of satellites, spacecraft, and rockets equipped with specific instruments for various scientific and technological missions. These include communications satellites like Starlink; space stations such as the ISS; scientific satellites like the Hubble; Earth observation satellites from companies like Planet Labs, Umbra, and HawkEye 360; GPS; miniature CubeSats for education and research; and military/defense satellites.

Loading next visibility...
FLOCK 4BE 10 details
Identifier
60503, 2024-149AM
Orbit
SSO
Last TLE update21 hours ago
Origin
Flag of USPlanet (US)
ManufacturerPlanet
MissionOperational spacecraft
Bus & MotorCUBESAT 3U, Unknown motor
Mass5.7 kg wet, 5.7 kg dry
Launch date (UTC)
2024-08-16 (4 months ago)
Launch vehicle
FALCON 9
Launch site
Air Force Western Test Range (AFWTR)
Object type
Payload
Rocket body
Debris
Shape & HBRUnknown
Radar Cross SectionMedium (>0.1 m² and <1 m²)

Expand to show TLE details & history

TLE from 21 hours ago
0 FLOCK 4BE 10
1 60503U 24149AM  24355.69684704  .00013376  00000-0  58240-3 0  9999
2 60503  97.4314  69.5309 0004669  63.0775 297.0938 15.22335605 19122
Epoch: 2024-12-20T16:43Z
Definitive object data (Epoch: 2024-12-20T16:43:27.584Z)
Latitude-0°
Longitude88.90732°
Altitude500.429 km
Speed7.615 km/s
True Right ascension04h 38m 07s
True Declination0° 00' 00"
Sunlit
Object was in full shadow at TLE epoch
Visualization TLE readout
Latitude-27.4698°
Longitude-94.07753°
Altitude511.812 km
Speed7.605 km/s
Apparent Right ascension19h 53m 40s
Apparent Declination-57° 00' 39"
Sunlit
Object is in daylight
Visualization observer readout
Local Sidereal Time13:10:29
Azimuth137.216° SSE
Elevation-38.055°
Doppler factor1
Orbital elements
Apogee altitude498.971 km
Perigee altitude492.552 km
Semi-major axis6,873.899 km
Eccentricity0.0004669
Inclination97.4314°
RAAN69.5309°
Arg. of periapsis63.0775°
True anomaly297.04616°
Mean anomaly297.0938°
Eccentric anomaly297.06998°
Mean motion3.80836 °/min
BSTAR0.0005824
Orbital period94.53 mins
Loading maneuver chart data...
Loading historical data...
Loading historical data...
Loading historical data...
Loading historical data...
Loading historical data...
Loading historical data...
Loading historical data...

FLOCK 4BE 10 Visibility forecast

Observer location: undefined°, undefined

Span
Click to sort rows by Start time (UTC) header in descending order
Start Az.
Max El. time (UTC)
Max El. Az.
Max El.
End time (UTC)
End Az.
5 mins2024-12-21 18:32:25.188Z337.561° N2024-12-21 18:34:25.188Z277.073° WNW29.571°2024-12-21 18:37:25.188Z221.229° SW
5 mins2024-12-22 05:09:25.188Z160.496° S2024-12-22 05:11:25.188Z11.012° NNE42.87°2024-12-22 05:14:25.188Z350.405° N
|